Regional Weather Roundup
Issued by NWS

Home | Current Version | Previous Version | Text Only | Print | Product List | Glossary Off
Versions: 1 2 3 4 5 6 7 8 9 10 11 12 13 14 15 16 17 18 19 20 21 22 23 24 25 26 27 28 29 30 31 32 33 34 35 36 37 38 39 40 41 42 43 44 45 46 47 48 49 50

000
ASUS43 KDTX 171810
RWRMI
MICHIGAN HOURLY REGIONAL WEATHER ROUNDUP
NATIONAL WEATHER SERVICE DETROIT/PONTIAC MI
200 PM EDT WED SEP 17 2014

NOTE: "FAIR" INDICATES FEW OR NO CLOUDS BELOW 12,000 FEET WITH NO
SIGNIFICANT WEATHER AND/OR OBSTRUCTION TO VISIBILITY.

MIZ047>049-052>055-059>063-066>070-074>076-081>083-171900-
SOUTHEAST LOWER MICHIGAN

CITY           SKY/WX    TMP DP  RH WIND       PRES   REMARKS
ADRIAN         SUNNY     65  40  39 VRB5      30.03S
6HR MIN TEMP:  40; 6HR MAX TEMP:  65;

ALMA           PTSUNNY   66  44  44 SW8       29.99F
ANN ARBOR      SUNNY     65  43  44 VRB7      30.01F
BAD AXE        MOSUNNY   66  51  57 W8        29.98S
6HR MIN TEMP:  41; 6HR MAX TEMP:  66;

DETROIT CITY   SUNNY     66  42  41 W6        30.00F
6HR MIN TEMP:  49; 6HR MAX TEMP:  66;

DETROIT        MOSUNNY   65  44  46 SW6       30.02S
6HR MIN TEMP:  47; 6HR MAX TEMP:  65;

FLINT          MOSUNNY   64  44  48 W8        30.00F
6HR MIN TEMP:  42; 6HR MAX TEMP:  67;

GROSSE ILE     SUNNY     64  45  48 W7        30.00F
HILLSDALE      SUNNY     66  41  40 W6        30.02F
HOWELL         SUNNY     64  42  44 W9        30.01S

CITY           SKY/WX    TMP DP  RH WIND       PRES   REMARKS
JACKSON        SUNNY     64  41  42 SW7       30.02S
6HR MIN TEMP:  39; 6HR MAX TEMP:  64;

LAMBERTVILLE   SUNNY     66  41  39 W6        30.02F
LANSING        MOSUNNY   66  43  43 MISG      30.01F
6HR MIN TEMP:  42; 6HR MAX TEMP:  66;

LAPEER         NOT AVBL
MASON          SUNNY     64  44  48 W8        30.01S
MONROE         SUNNY     64  43  45 NW8       30.01S
MT. CLEMENS    MOSUNNY   65  41  41 S9        29.99F
6HR MIN TEMP:  45; 6HR MAX TEMP:  65;

PONTIAC        MOSUNNY   64  44  48 VRB6      30.00S
6HR MIN TEMP:  44; 6HR MAX TEMP:  64;

PORT HOPE        N/A     66  45  46 W9G16     29.96S
6HR MIN TEMP:  48; 6HR MAX TEMP:  66;

PORT HURON     SUNNY     63  46  55 CALM      29.99F
TRI CITIES     CLOUDY    65  47  52 W10       29.99F
6HR MIN TEMP:  44; 6HR MAX TEMP:  68;

YPSILANTI      SUNNY     68  43  40 W5        30.02S
6HR MIN TEMP:  46; 6HR MAX TEMP:  68;

$$
MIZ043>046-050>051-056>058-064>065-071>073-077>080-171900-
SOUTHWEST LOWER MICHIGAN

CITY           SKY/WX    TMP DP  RH WIND       PRES   REMARKS
BATTLE CREEK   PTSUNNY   65  45  48 SW8       30.02F
6HR MIN TEMP:  42; 6HR MAX TEMP:  65;

BENTON HARBOR  SUNNY     64  46  52 W9        30.03S
6HR MIN TEMP:  39; 6HR MAX TEMP:  64;

BIG RAPIDS     PTSUNNY   63  50  61 W13       29.98S
6HR MIN TEMP:  38; 6HR MAX TEMP:  66;

COLDWATER      MOSUNNY   65  45  47 W6        30.02F
6HR MIN TEMP:  40; 6HR MAX TEMP:  66;

HOLLAND        PTSUNNY   65  51  60 W14       30.03S
6HR MIN TEMP:  45; 6HR MAX TEMP:  67;

GRAND RAPIDS   PTSUNNY   64  48  56 SW10      30.02S
6HR MIN TEMP:  42; 6HR MAX TEMP:  65;

KALAMAZOO      PTSUNNY   65  45  48 W7        30.03F
6HR MIN TEMP:  40; 6HR MAX TEMP:  66;

MARSHALL       SUNNY     64  43  45 W6        30.01F
MUSKEGON       PTSUNNY   65  46  50 W8        30.01F
6HR MIN TEMP:  43; 6HR MAX TEMP:  67;

$$
MIZ016>042-171900-
NORTHERN LOWER MICHIGAN

CITY           SKY/WX    TMP DP  RH WIND       PRES   REMARKS
ALPENA         SUNNY     67  45  45 W8G18     29.93F
6HR MIN TEMP:  48; 6HR MAX TEMP:  68;

BEAVER ISLAND  MOSUNNY   65  52  60 SW8G17    29.93S
6HR MIN TEMP:  49; 6HR MAX TEMP:  67;

BELLAIRE       MOSUNNY   66  47  51 W6        29.96S
6HR MIN TEMP:  51; 6HR MAX TEMP:  66;

CADILLAC       CLOUDY    60  47  60 W6        29.98S
CHARLEVOIX     SUNNY     64  51  62 W12G18    29.98S
6HR MIN TEMP:  56; 6HR MAX TEMP:  64;

FRANKFORT      CLEAR     64  47  54 W9        29.98S
GAYLORD        MOSUNNY   64  43  46 W16       29.96F
6HR MIN TEMP:  48; 6HR MAX TEMP:  64;

GRAYLING       PTSUNNY   65  44  47 W10       29.97S
6HR MIN TEMP:  49; 6HR MAX TEMP:  69;

HARBOR SPRINGS SUNNY     64  51  61 SW8       29.94F
HOUGHTON LAKE  MOSUNNY   65  46  50 W8        29.97F
6HR MIN TEMP:  47; 6HR MAX TEMP:  65;

MANISTEE       SUNNY     63  46  55 W8        30.00S
OSCODA         MOSUNNY   70  46  42 W13       29.94S
PELLSTON       MOSUNNY   66  46  48 W16G24    29.93F
6HR MIN TEMP:  46; 6HR MAX TEMP:  67;

TRAVERSE CITY  MOSUNNY   67  44  43 SW7       29.96S
6HR MIN TEMP:  50; 6HR MAX TEMP:  67;

$$
MIZ007>008-015-171900-
EASTERN UPPER MICHIGAN

CITY           SKY/WX    TMP DP  RH WIND       PRES   REMARKS
KINROSS        PTSUNNY   61  48  63 W5        29.90F
6HR MIN TEMP:  46; 6HR MAX TEMP:  61;

MACKINAC ISLAN MOSUNNY   61  51  69 W7G16     29.91S
6HR MIN TEMP:  51; 6HR MAX TEMP:  62;

NEWBERRY       CLOUDY    62  49  62 W10G16    29.91S
S. S. MARIE    CLOUDY    58  48  69 NW8       29.90S
6HR MIN TEMP:  46; 6HR MAX TEMP:  59; 6HR PCP:  0.01;

$$
MIZ004>006-011>014-085-171900-
CENTRAL UPPER MICHIGAN

CITY           SKY/WX    TMP DP  RH WIND       PRES   REMARKS
MANISTIQUE     SUNNY     65  52  62 S7        29.91S
ESCANABA       SUNNY     63  50  63 S12       29.91F
6HR MIN TEMP:  45; 6HR MAX TEMP:  66;

MENOMINEE      MOSUNNY   66  46  48 NW6       29.93S
6HR MIN TEMP:  46; 6HR MAX TEMP:  66;

SAWYER-GWINN   PTSUNNY   52  48  87 N16G22    29.94R
$$
MIZ001>003-009>011-084-171900-
WESTERN UPPER MICHIGAN

CITY           SKY/WX    TMP DP  RH WIND       PRES   REMARKS
IRON MOUNTAIN  SUNNY     67  43  41 VRB7      29.92S
6HR MIN TEMP:  47; 6HR MAX TEMP:  68;

HOUGHTON       CLOUDY    43  39  86 E7        30.00R
6HR MIN TEMP:  43; 6HR MAX TEMP:  52; 6HR PCP: TRACE;

COPPER HARBOR    N/A     45  39  79 VRB7      30.02R
6HR MIN TEMP:  42; 6HR MAX TEMP:  48; 6HR PCP:  0.02;

IRONWOOD         N/A     57  48  72 N12       29.95R
6HR MIN TEMP:  48; 6HR MAX TEMP:  63;

$$

ABBREVIATIONS USED IN REMARKS
   TC - TEMPERATURE IN CELSIUS
  WCI - WIND CHILL INDEX
   HX - HEAT INDEX
  VSB - VISIBILITY



USA.gov is the U.S. government's official web portal to all federal, state and local government web resources and services.